Regional Weather Roundup
Issued by NWS

Home | Current Version | Previous Version | Text Only | Print | Product List | Glossary On
Versions: 1 2 3 4 5 6 7 8 9 10 11 12 13 14 15 16 17 18 19 20 21 22 23 24 25 26 27 28 29 30 31 32 33 34 35 36 37 38 39 40 41 42 43 44 45 46 47 48 49 50
000
ASUS43 KTOP 072359
RWRKS

WEATHER ROUNDUP FOR KANSAS
NATIONAL WEATHER SERVICE GOODLAND KS
700 PM CDT TUE JUL 07 2015

NOTE:  "FAIR" INDICATES FEW OR NO CLOUDS BELOW 12,000 FEET WITH NO
SIGNIFICANT WEATHER AND/OR OBSTRUCTIONS TO VISIBILITY.

KSZ001>006-013>018-027>032-041>047-080100-
NORTHWEST KANSAS

CITY           SKY/WX    TMP DP  RH WIND       PRES   REMARKS
GOODLAND       MOSUNNY   74  43  32 SE10      30.11F
6HR MIN TEMP:  71; 6HR MAX TEMP:  76;

HAYS           MOSUNNY   75  46  35 E14       30.07S
HILL CITY      MOSUNNY   77  48  35 NE6       30.09S
6HR MIN TEMP:  76; 6HR MAX TEMP:  80;

RUSSELL        SUNNY     75  48  38 E10G20    30.05F
6HR MIN TEMP:  73; 6HR MAX TEMP:  78;

$$

KSZ061>065-074>080-084>089-080100-
SOUTHWEST KANSAS

CITY           SKY/WX    TMP DP  RH WIND       PRES   REMARKS
DODGE CITY     MOSUNNY   73  45  36 E12       30.07F
6HR MIN TEMP:  71; 6HR MAX TEMP:  77;

ELKHART          N/A     76  49  38 E10         N/A
GARDEN CITY    SUNNY     74  46  36 E14       30.07S
6HR MIN TEMP:  72; 6HR MAX TEMP:  78;

GREAT BEND     MOSUNNY   72  50  46 E10       30.07S
LIBERAL        SUNNY     75  46  35 E10       30.08F
$$

KSZ066>073-081>083-090>101-080100-
SOUTHEAST KANSAS

CITY           SKY/WX    TMP DP  RH WIND       PRES   REMARKS
CHANUTE        CLOUDY    64  61  90 NE12      30.04F FOG
6HR MIN TEMP:  64; 6HR MAX TEMP:  68; 6HR PCP:  0.02;

COFFEYVILLE    CLOUDY    66  63  90 N14       30.00F FOG
6HR MIN TEMP:  66; 6HR MAX TEMP:  69; 6HR PCP: TRACE;

HUTCHINSON     LGT RAIN  67  52  58 NE7       30.06F
6HR MIN TEMP:  66; 6HR MAX TEMP:  71; 6HR PCP: TRACE;

MEDICINE LODGE   N/A     64  57  78 E6        30.05F
NEWTON         CLOUDY    64  52  63 NE6       30.08F
PARSONS        CLOUDY    66  63  90 N8        30.03F FOG
6HR MIN TEMP:  66; 6HR MAX TEMP:  67; 6HR PCP: TRACE;

WICHITA INTL   CLOUDY    67  54  63 N12       30.03F
6HR MIN TEMP:  67; 6HR MAX TEMP:  71; 6HR PCP: TRACE;

WICHITA JABRA  CLOUDY    66  56  70 N10       30.04F
6HR MIN TEMP:  66; 6HR MAX TEMP:  71;

WINFIELD       LGT RAIN  64  62  93 NE9       30.03F FOG
6HR MIN TEMP:  64; 6HR MAX TEMP:  68; 6HR PCP:  0.14;

$$

KSZ007>012-019>026-033>040-048>060-102>105-080100-
NORTHEAST KANSAS

CITY           SKY/WX    TMP DP  RH WIND       PRES   REMARKS
CONCORDIA      MOSUNNY   72  48  42 NE8       30.07F
6HR MIN TEMP:  70; 6HR MAX TEMP:  74;

EMPORIA        CLOUDY    68  57  68 NE10      30.05F
6HR MIN TEMP:  68; 6HR MAX TEMP:  73; 6HR PCP: TRACE;

LAWRENCE       LGT RAIN  69  63  81 CALM      30.04F
6HR MIN TEMP:  69; 6HR MAX TEMP:  73; 6HR PCP: TRACE;

MANHATTAN      CLOUDY    70  54  56 E9        30.05F
6HR MIN TEMP:  70; 6HR MAX TEMP:  74;

OLATHE IND     LGT RAIN  66  63  90 N7        30.05F FOG
6HR MIN TEMP:  66; 6HR MAX TEMP:  73; 6HR PCP:  0.01;

OLATHE EXE     LGT RAIN  68  59  73 NE6       30.04S
6HR MIN TEMP:  68; 6HR MAX TEMP:  74; 6HR PCP: TRACE;

SALINA         PTSUNNY   74  49  41 E9        30.06F
6HR MIN TEMP:  73; 6HR MAX TEMP:  77;

TOPEKA BILLARD CLOUDY    70  62  76 N3        30.05F
6HR MIN TEMP:  69; 6HR MAX TEMP:  71; 6HR PCP: TRACE;

TOPEKA FORBES  CLOUDY    70  60  70 NE5       30.05F HAZE
6HR MIN TEMP:  70; 6HR MAX TEMP:  72; 6HR PCP: TRACE;

$$



USA.gov is the U.S. government's official web portal to all federal, state and local government web resources and services.